Weather History for Spirit of St Louis, MO

Change the Weather History Date:

Friday, December 7, 2012

  Actual Average Record
Temperature  
Mean Temperature 48 °F -  
Max Temperature 55 °F 45 °F 57 °F (2000)
Min Temperature 42 °F 27 °F 10 °F (2005)
Degree Days  
Heating Degree Days 16    
Moisture  
Dew Point 45 °F    
Average Humidity 87    
Maximum Humidity 96    
Minimum Humidity 74    
Precipitation  
Precipitation 0.10 in - - ()
Sea Level Pressure  
Sea Level Pressure 29.87 in    
Wind  
Wind Speed 1 mph (NNW)    
Max Wind Speed 8 mph    
Max Gust Speed -    
Visibility 7 miles    
Events Rain    
Averages and records for this station are not official NWS values.
T = Trace of Precipitation, MM = Missing Value Source: NWS Daily Summary

Daily Weather History Graph

Daily Weather History Graph

Search for Another Location

Airport:

Trip Planner

Search our weather history database for the weather conditions in past years. The results will help you decide how hot, cold, wet, or windy it might be!

Date:

Astronomy

Dec. 07, 2012 Rise Set
Actual Time 7:07 AM CST 4:41 PM CST
Civil Twilight 6:37 AM CST 5:10 PM CST
Nautical Twilight 6:04 AM CST 5:43 PM CST
Astronomical Twilight 5:32 AM CST 6:16 PM CST
Moon 12:30 AM CST (12/7) 12:34 PM CST (12/7)
Length of Visible Light 10h 32m
Length of Day
9h 33m
Last Quarter, 38% of the Moon is Illuminated
Dec 7
Last Quarter
Dec 13
New
Dec 19
First Quarter
Dec 28
Full
Jan 4
Last Quarter

Hourly Weather History & Observations

Time (CST) Temp. Windchill Dew Point Humidity Pressure Visibility Wind Dir Wind Speed Gust Speed Precip Events Conditions
12:54 AM 42.1 °F - 39.0 °F 89% 29.93 in 10.0 mi Calm Calm - N/A   Scattered Clouds
1:54 AM 42.1 °F - 39.0 °F 89% 29.92 in 10.0 mi Calm Calm - N/A   Clear
2:54 AM 43.0 °F - 39.9 °F 89% 29.91 in 10.0 mi Calm Calm - N/A   Mostly Cloudy
3:54 AM 46.0 °F 43.9 °F 42.1 °F 86% 29.88 in 10.0 mi ENE 4.6 mph - N/A   Overcast
4:54 AM 46.0 °F 44.8 °F 42.1 °F 86% 29.88 in 10.0 mi ENE 3.5 mph - N/A   Overcast
5:29 AM 46.4 °F - 42.8 °F 87% 29.87 in 10.0 mi Calm Calm - N/A   Overcast
5:54 AM 46.9 °F - 43.0 °F 86% 29.88 in 10.0 mi Calm Calm - N/A   Overcast
6:54 AM 46.9 °F - 44.1 °F 90% 29.88 in 10.0 mi Calm Calm - N/A   Overcast
7:36 AM 48.2 °F - 44.6 °F 87% 29.87 in 10.0 mi Calm Calm - N/A   Overcast
7:54 AM 48.0 °F - 45.0 °F 89% 29.88 in 10.0 mi Calm Calm - N/A   Overcast
8:36 AM 48.2 °F - 46.4 °F 93% 29.87 in 10.0 mi Calm Calm - N/A   Overcast
8:54 AM 50.0 °F - 46.0 °F 86% 29.88 in 10.0 mi Calm Calm - N/A   Overcast
9:33 AM 50.0 °F - 46.4 °F 87% 29.88 in 8.0 mi Calm Calm - N/A   Overcast
9:39 AM 50.0 °F - 46.4 °F 87% 29.88 in 9.0 mi Calm Calm - N/A   Overcast
9:54 AM 50.0 °F - 46.0 °F 86% 29.89 in 5.0 mi Calm Calm - N/A   Overcast
10:54 AM 50.0 °F - 46.9 °F 89% 29.88 in 7.0 mi Calm Calm - 0.00 in   Overcast
11:54 AM 53.1 °F - 48.0 °F 83% 29.85 in 6.0 mi Calm Calm - N/A   Haze
12:47 PM 55.4 °F - 48.2 °F 77% 29.83 in 10.0 mi West 6.9 mph - N/A   Overcast
12:54 PM 54.0 °F - 48.0 °F 80% 29.83 in 10.0 mi West 8.1 mph - N/A   Overcast
1:54 PM 55.0 °F - 48.0 °F 77% 29.82 in 10.0 mi Variable 3.5 mph - N/A   Overcast
2:54 PM 55.0 °F - 46.9 °F 74% 29.83 in 10.0 mi WNW 4.6 mph - N/A   Overcast
3:54 PM 53.1 °F - 46.9 °F 80% 29.83 in 6.0 mi North 3.5 mph - N/A   Haze
4:54 PM 50.0 °F - 46.0 °F 86% 29.84 in 5.0 mi Calm Calm - N/A   Overcast
5:54 PM 50.0 °F - 46.9 °F 89% 29.86 in 5.0 mi NNW 4.6 mph - N/A   Overcast
6:54 PM 50.0 °F - 46.4 °F 87% 29.87 in 4.0 mi NNW 4.6 mph - N/A   Overcast
7:15 PM 50.0 °F - 46.4 °F 87% 29.87 in 4.0 mi NNW 4.6 mph - N/A   Overcast
7:24 PM 50.0 °F - 46.4 °F 87% 29.87 in 5.0 mi Calm Calm - N/A   Overcast
7:54 PM 50.0 °F - 46.9 °F 89% 29.87 in 5.0 mi NNW 3.5 mph - N/A   Overcast
8:54 PM 50.0 °F - 46.9 °F 89% 29.87 in 4.0 mi NNW 3.5 mph - N/A   Overcast
9:54 PM 50.0 °F - 46.9 °F 89% 29.87 in 4.0 mi NNW 3.5 mph - N/A   Overcast
10:54 PM 48.9 °F - 46.0 °F 90% 29.88 in 4.0 mi NW 4.6 mph - 0.01 in Rain Light Rain
11:19 PM 48.2 °F - 46.4 °F 93% 29.88 in 2.5 mi Calm Calm - 0.03 in Rain Rain
11:29 PM 48.2 °F - 46.4 °F 93% 29.87 in 2.0 mi Calm Calm - 0.06 in Rain Rain
11:52 PM 48.2 °F - 46.4 °F 93% 29.89 in 1.8 mi Calm Calm - 0.09 in Rain Rain
11:54 PM 48.0 °F - 46.9 °F 96% 29.89 in 1.8 mi WSW 3.5 mph - 0.09 in Rain Rain